Oakes, ND

5:59 AM CST on November 21, 2019 (GMT -0600)
Oakes

Weather History for K2D5 - September, 2019

Change the Weather History Date:

Monday, September 9, 2019

  Actual Average (WUND) Record (WUND)
Temperature  
Mean Temperature 60 °F -  
Max Temperature 64 °F - - (-1)
Min Temperature 55 °F - - (-1)
Degree Days  
Heating Degree Days 6    
Growing Degree Days 10 (Base 50)    
Moisture  
Dew Point 57 °F    
Average Humidity 100    
Maximum Humidity 100    
Minimum Humidity 100    
Precipitation  
Precipitation 0.00 in - - ()
Sea Level Pressure  
Sea Level Pressure 29.87 in    
Wind  
Wind Speed 11 mph (East)    
Max Wind Speed 21 mph    
Max Gust Speed 30 mph    
Visibility 5 miles    
Events Fog , Thunderstorm    
Averages and records for this station are not official NWS values.
T = Trace of Precipitation, MM = Missing Value Source: NWS Daily Summary

Daily Weather History Graph

Daily Weather History Graph

Search for Another Location

Airport or City:

Astronomy

Sep. 09, 2019 Rise Set
Actual Time 7:02 AM CDT 7:55 PM CDT
Civil Twilight 6:32 AM CDT 8:26 PM CDT
Nautical Twilight 5:55 AM CDT 9:02 PM CDT
Astronomical Twilight 5:17 AM CDT 9:40 PM CDT
Moon 6:07 PM CDT (9/9) 2:18 AM CDT (9/9)
Length of Visible Light 13h 54m
Length of Day
12h 53m
Waxing Gibbous, 83% of the Moon is Illuminated
Sep 9
Waxing Gibbous
Sep 13
Full
Sep 21
Last Quarter
Sep 28
New
Oct 5
First Quarter

Hourly Weather History & Observations

Time (CDT) Temp. Dew Point Humidity Pressure Visibility Wind Dir Wind Speed Gust Speed Precip Events Conditions
12:35 AM 55.4 °F 55.4 °F 100% 30.06 in 10.0 mi ESE 10.4 mph - N/A   Overcast
12:55 AM 55.4 °F 55.4 °F 100% 30.05 in 9.0 mi East 11.5 mph - N/A   Overcast
1:15 AM 55.4 °F 55.4 °F 100% 30.05 in 9.0 mi East 10.4 mph - N/A   Overcast
1:55 AM 55.4 °F 55.4 °F 100% 30.05 in 9.0 mi East 9.2 mph - N/A   Overcast
2:15 AM 55.4 °F 55.4 °F 100% 30.03 in 9.0 mi East 10.4 mph - N/A   Overcast
2:35 AM 55.4 °F 55.4 °F 100% 30.02 in 9.0 mi East 12.7 mph - N/A   Overcast
3:15 AM 55.4 °F 55.4 °F 100% 30.01 in 8.0 mi East 11.5 mph - N/A   Overcast
3:55 AM 55.4 °F 55.4 °F 100% 29.99 in 6.0 mi East 12.7 mph - N/A   Overcast
4:15 AM 55.4 °F 55.4 °F 100% 29.98 in 6.0 mi East 11.5 mph - N/A   Overcast
4:35 AM 55.4 °F 55.4 °F 100% 29.98 in 6.0 mi East 11.5 mph - N/A   Overcast
4:55 AM 55.4 °F 55.4 °F 100% 29.97 in 5.0 mi ESE 12.7 mph 19.6 mph N/A   Overcast
5:35 AM 55.4 °F 55.4 °F 100% 29.95 in 4.0 mi East 15.0 mph 20.7 mph N/A   Overcast
6:55 AM 55.4 °F 55.4 °F 100% 29.92 in 1.8 mi East 15.0 mph - N/A   Overcast
7:15 AM 55.4 °F 55.4 °F 100% 29.93 in 3.0 mi East 17.3 mph - N/A   Overcast
7:55 AM 55.4 °F 55.4 °F 100% 29.93 in 2.0 mi East 12.7 mph 19.6 mph N/A   Overcast
8:15 AM 55.4 °F 55.4 °F 100% 29.91 in 0.8 mi East 11.5 mph 18.4 mph N/A Thunderstorm Overcast
8:35 AM 55.4 °F 55.4 °F 100% 29.92 in 3.0 mi ESE 9.2 mph - N/A Thunderstorm Overcast
9:15 AM - - N/A% 29.92 in 0.8 mi ESE 6.9 mph - N/A Thunderstorm Thunderstorm
9:35 AM - - N/A% 29.88 in 1.2 mi East 13.8 mph - N/A   Overcast
9:55 AM 57.2 °F 57.2 °F 100% 29.89 in 2.5 mi East 15.0 mph - N/A Thunderstorm Overcast
10:15 AM 57.2 °F 57.2 °F 100% 29.85 in 1.0 mi East 19.6 mph - N/A Thunderstorm Overcast
11:35 AM 57.2 °F 57.2 °F 100% 29.84 in 8.0 mi East 18.4 mph 29.9 mph N/A   Mostly Cloudy
12:35 PM 57.2 °F 57.2 °F 100% 29.80 in 3.0 mi East 20.7 mph - N/A   Overcast
12:55 PM 57.2 °F 57.2 °F 100% 29.79 in 3.0 mi East 17.3 mph 24.2 mph N/A   Mostly Cloudy
1:35 PM 59.0 °F 59.0 °F 100% 29.76 in 4.0 mi East 20.7 mph 27.6 mph N/A   Overcast
2:15 PM 59.0 °F 59.0 °F 100% 29.75 in 1.2 mi ESE 19.6 mph 25.3 mph N/A   Overcast
2:55 PM 59.0 °F 59.0 °F 100% 29.74 in 3.0 mi ESE 17.3 mph - N/A   Overcast
4:55 PM 62.6 °F 62.6 °F 100% 29.70 in 10.0 mi ESE 8.1 mph - N/A   Overcast
6:15 PM 62.6 °F 62.6 °F 100% 29.69 in 10.0 mi East 8.1 mph - N/A   Overcast
6:35 PM 64.4 °F 64.4 °F 100% 29.70 in 10.0 mi East 6.9 mph - N/A   Overcast
8:15 PM 62.6 °F 62.6 °F 100% 29.69 in 9.0 mi NE 3.5 mph - N/A   Mostly Cloudy
9:55 PM 59.0 °F 59.0 °F 100% 29.72 in 0.5 mi Calm Calm - N/A   Overcast
10:15 PM 59.0 °F 59.0 °F 100% 29.72 in 0.2 mi Calm Calm - N/A Fog Fog
10:35 PM 59.0 °F 59.0 °F 100% 29.73 in 0.2 mi SSW 4.6 mph - N/A Fog Fog
10:55 PM 59.0 °F 59.0 °F 100% 29.73 in 0.5 mi West 3.5 mph - N/A Fog Fog
11:15 PM 59.0 °F 59.0 °F 100% 29.74 in 5.0 mi West 4.6 mph - N/A   Overcast
11:55 PM 59.0 °F 59.0 °F 100% 29.76 in 1.5 mi West 6.9 mph - N/A   Scattered Clouds